Temp
23 24 26 27 25 27 33 33 35 34 35 36 34 33 32 32 31 27 28 26 26 24 22 21 21 21 21 21 21 21 21 21 21 21 21 21 21 21 21 21 21 21 21 21 21 21 21 20 21
25 28 29 27 26 31 32 34 34 34 35 34 31 33 32 30 31 30 28 29 27 25 23 22 21 21 21 21 21 21 21 21 21 21 21 21 21 21 21 21 21 21 21 21 21 21 21 20 21
24 28 26 27 27 29 32 34 34 34 35 33 27 30 32 30 32 31 28 29 27 25 23 21 21 21 21 21 21 21 21 21 21 21 21 21 21 21 21 21 21 21 21 21 21 21 21 20 21
28 30 28 24 28 34 34 34 34 34 35 34 33 31 32 32 31 30 29 28 26 25 23 21 21 21 21 21 21 21 21 21 21 21 21 21 21 21 21 21 21 21 21 21 21 21 21 20 22
29 28 26 25 31 34 35 35 35 34 32 33 32 30 31 31 30 29 28 26 26 25 23 21 21 21 21 21 21 21 21 21 21 21 21 21 21 21 21 21 21 21 21 21 21 21 21 20 22
25 27 25 26 32 34 34 35 35 32 30 28 31 31 30 31 30 30 29 28 28 26 24 22 21 21 21 21 21 21 21 21 21 22 22 22 21 21 21 21 21 21 21 21 21 21 21 22 23
25 23 26 28 28 31 34 35 30 32 32 32 32 30 31 31 30 29 29 28 27 27 25 23 22 21 21 21 21 21 21 22 22 21 22 21 21 21 21 21 21 21 21 21 22 22 23 24 24
24 23 27 28 28 32 35 34 31 32 32 35 33 30 29 31 31 31 27 26 25 27 25 25 23 23 22 22 21 22 22 22 22 22 22 22 21 21 21 22 22 21 22 23 23 23 24 25 25
24 25 26 30 32 33 35 32 33 33 32 33 33 32 31 32 31 31 28 28 27 26 26 25 24 24 23 22 21 22 22 23 22 23 23 23 24 23 22 23 23 23 24 24 24 24 24 24 24
26 24 28 31 33 34 34 32 33 31 34 32 33 32 32 32 31 30 27 28 27 26 26 24 25 24 25 24 23 23 23 23 24 23 23 23 25 25 24 24 24 24 24 25 25 25 24 24 24
28 24 23 28 32 34 33 31 35 33 32 32 32 32 33 32 31 31 29 28 28 27 26 25 25 25 25 25 24 24 24 24 25 25 24 25 26 25 25 24 24 25 25 22 24 25 23 26 25
29 23 24 25 33 31 35 35 35 35 33 33 32 32 33 32 32 32 30 29 27 26 26 26 26 25 26 26 26 25 25 25 26 26 26 25 25 25 22 23 24 25 24 26 26 26 27 26 28
27 30 27 28 32 33 35 34 33 33 33 33 32 32 32 33 32 32 29 29 30 28 27 26 25 26 26 27 26 26 26 26 26 25 25 25 26 26 25 27 26 25 25 27 27 27 27 27 28
30 30 30 31 31 27 33 33 34 33 34 33 32 32 33 33 33 32 31 31 30 29 27 25 25 25 25 26 26 26 26 26 25 25 21 25 25 25 26 25 24 27 26 27 28 27 27 28 28
31 29 30 28 29 27 32 31 32 33 34 33 33 33 33 33 33 32 31 31 30 29 26 25 25 25 25 26 25 26 26 26 26 25 25 24 26 26 25 26 26 27 28 28 28 28 29 28 28
30 29 28 27 27 24 29 28 32 33 33 32 33 33 33 33 32 32 31 30 30 28 26 25 26 26 25 26 26 25 26 26 26 26 26 25 25 25 26 25 26 27 27 26 28 28 29 29 29
27 24 26 25 23 24 28 28 31 34 33 32 33 33 33 33 32 31 31 30 29 27 27 26 27 26 26 25 26 26 27 27 26 26 26 25 25 25 25 26 27 27 26 26 27 28 29 29 30
25 23 23 24 23 23 27 28 31 33 33 33 33 33 33 32 32 31 31 30 28 27 27 26 27 26 26 26 26 27 26 27 26 26 25 25 25 25 25 26 27 25 26 27 27 28 29 29 29
29 26 24 22 22 23 23 23 27 29 32 31 33 33 32 32 32 32 31 30 28 27 27 27 26 26 25 26 26 26 26 26 26 26 25 25 25 25 25 26 26 24 25 27 27 27 27 29 30
29 26 23 22 22 22 22 23 22 24 25 31 29 32 32 31 30 32 31 30 29 28 27 27 26 26 26 26 26 26 26 26 26 26 26 25 26 25 25 25 26 25 26 27 26 27 27 29 29
25 25 23 23 23 22 22 22 22 23 24 25 26 28 28 30 27 32 31 31 29 28 27 26 25 26 26 25 26 26 25 26 26 25 26 25 25 25 25 25 25 26 26 26 26 27 27 28 29
26 28 27 24 24 24 25 24 21 21 23 25 26 27 28 27 29 31 31 29 30 28 27 26 25 26 25 25 26 25 26 26 26 26 26 26 26 26 25 26 26 25 26 26 26 26 26 27 27
28 30 29 26 25 27 24 26 24 22 22 24 25 28 28 25 27 29 32 29 29 29 28 26 25 25 25 25 24 25 25 25 26 25 25 26 26 26 26 26 26 25 25 25 26 26 26 26 26
32 30 28 25 23 24 27 27 25 23 25 26 27 28 28 29 25 28 31 29 30 29 28 26 26 25 25 24 25 25 24 24 23 22 24 25 25 25 25 26 25 25 25 25 26 26 26 26 26
34 29 29 26 24 28 31 28 28 26 27 28 27 29 27 27 27 25 31 31 29 29 29 27 25 25 25 24 25 24 25 24 23 24 23 25 25 25 26 25 25 25 25 25 25 25 25 26 26
33 34 32 29 30 25 24 30 32 29 30 29 28 29 26 26 27 26 31 29 28 28 28 28 26 25 25 25 25 25 25 26 25 24 25 24 23 23 25 25 25 25 25 25 25 25 26 26 26
33 33 35 30 27 31 27 29 32 30 32 30 30 29 29 29 29 29 29 28 29 27 27 25 26 26 25 25 25 25 25 25 25 25 22 21 21 22 24 25 25 26 25 25 25 25 25 25 25
35 35 33 34 30 29 27 27 24 31 32 32 30 29 30 30 31 30 28 24 24 27 28 28 25 26 26 26 25 25 25 25 25 25 25 25 23 22 23 25 26 26 25 25 25 25 25 26 25
34 33 34 35 35 32 26 25 25 29 33 34 32 31 30 31 31 31 27 26 25 27 27 26 27 27 26 26 26 26 25 25 25 25 25 25 25 24 25 24 25 25 25 25 25 25 25 25 25
35 34 34 33 33 34 33 29 29 26 25 29 35 32 30 31 32 31 27 24 22 24 26 26 28 27 27 27 27 27 26 27 26 26 26 26 25 25 24 24 24 25 25 25 24 24 24 25 26
Height
769 769 768 768 790 778 763 761 741 749 749 739 743 752 768 764 768 809 796 804 810 816 820 823 824 826 827 828 829 831 832 832 831 833 833 834 835 835 835 836 837 838 840 840 842 843 843 843 842
769 767 765 768 788 773 772 751 757 751 748 746 759 757 767 783 772 783 797 802 808 816 821 824 826 828 829 831 831 832 834 834 834 835 836 836 838 838 839 840 841 842 843 844 844 845 845 844 844
767 766 772 777 782 783 772 755 754 752 748 756 782 770 772 785 780 785 797 802 808 816 821 824 827 829 831 832 833 834 835 835 836 837 837 839 840 841 841 842 844 845 846 846 847 847 847 847 847
764 763 769 797 778 750 754 751 751 755 748 756 764 781 773 779 785 790 799 804 810 818 822 825 828 830 831 832 834 835 836 838 838 839 839 840 842 843 844 845 847 847 847 849 849 849 849 850 849
765 768 792 796 764 747 745 746 750 755 763 764 768 785 783 785 791 797 801 806 812 819 823 827 829 831 833 835 837 837 838 839 840 840 841 842 844 845 846 848 848 849 850 850 851 851 851 851 851
779 776 801 796 765 750 748 746 749 762 771 780 777 784 789 790 795 798 802 807 811 818 824 829 831 833 835 837 838 839 840 841 841 841 842 844 845 847 848 849 850 851 851 851 852 852 852 852 852
784 795 793 781 782 766 753 744 766 766 771 775 774 791 790 793 796 799 804 811 813 820 824 829 833 835 837 838 839 839 840 841 842 843 844 845 847 848 849 850 851 852 852 852 852 853 853 853 853
781 791 784 780 778 767 748 750 758 763 772 761 771 793 800 792 793 800 807 813 821 824 826 830 834 836 838 840 840 841 842 842 842 842 842 845 847 849 850 850 851 852 852 852 852 853 853 853 854
777 791 786 768 761 756 743 761 757 760 767 765 768 778 789 790 795 801 809 815 820 824 827 830 835 838 839 842 843 843 843 842 839 836 837 842 845 848 849 850 851 854 856 855 854 854 855 855 855
778 791 775 751 746 749 749 760 761 771 764 776 774 783 787 791 796 803 811 816 820 825 828 834 835 838 840 842 843 845 844 842 837 850 850 840 844 846 848 850 855 860 861 861 860 856 855 856 856
768 777 781 761 745 743 751 766 749 764 775 773 779 785 786 792 798 800 809 814 820 824 829 833 836 839 840 841 842 843 844 844 839 848 848 842 845 852 858 858 858 859 860 863 860 860 855 851 856
774 778 779 765 742 750 749 746 755 755 765 766 779 786 787 793 798 799 807 814 819 826 829 833 836 840 840 840 841 843 845 848 849 849 850 851 850 854 850 858 855 859 860 856 859 861 857 857 855
776 762 766 761 747 744 741 753 766 763 762 768 782 787 791 793 797 799 808 814 817 824 828 832 837 840 841 842 841 844 846 852 854 853 856 858 855 849 850 847 855 862 861 860 862 861 857 856 858
761 761 763 758 758 762 754 760 759 766 764 772 782 788 790 794 797 801 808 811 818 823 828 834 838 841 842 842 842 844 848 854 855 855 852 859 860 856 850 851 859 859 861 860 858 857 856 857 858
755 772 767 771 770 778 761 772 772 764 766 777 783 786 789 793 797 802 807 813 819 824 830 835 839 842 843 843 844 844 848 854 857 858 856 860 861 858 857 855 856 856 857 856 855 854 856 857 859
764 773 790 779 780 776 776 798 769 765 771 780 783 786 789 793 799 804 808 814 819 825 831 836 838 842 844 844 845 848 848 851 855 858 860 860 858 856 853 856 856 855 855 855 854 855 855 858 857
780 810 796 799 792 789 782 795 774 766 773 782 783 786 789 793 801 806 809 814 819 827 832 835 838 841 844 845 846 848 849 850 853 855 857 857 855 854 854 855 858 860 859 855 857 854 857 857 858
800 809 807 805 802 799 793 792 777 770 775 780 782 784 788 793 799 805 809 814 820 828 833 836 838 841 844 846 847 848 849 851 851 853 855 855 855 855 860 863 861 861 863 857 857 858 857 858 858
773 793 805 806 805 808 813 810 791 784 778 783 781 784 789 791 797 803 807 814 821 827 833 836 839 842 845 847 847 849 850 852 852 855 857 858 858 858 861 865 865 865 864 858 857 858 858 857 858
766 792 810 812 810 813 818 816 810 806 799 785 789 787 789 793 797 800 806 812 819 826 832 835 838 842 845 847 848 850 852 853 854 856 858 860 860 860 862 866 867 866 863 859 861 861 860 858 858
791 792 806 813 816 816 821 829 824 812 809 801 797 797 797 795 803 799 804 810 816 823 830 834 837 841 842 847 848 851 852 853 854 856 858 859 861 861 860 862 861 861 860 860 861 862 860 859 859
785 775 783 796 811 822 807 835 828 821 814 807 799 795 795 799 799 799 803 813 814 820 825 832 836 839 843 846 848 849 852 851 854 855 856 859 860 861 861 862 864 865 863 862 861 861 862 862 861
779 764 775 790 805 804 819 818 816 814 820 806 801 795 790 798 797 798 798 805 812 817 820 827 833 838 842 844 849 852 850 850 856 860 860 860 859 861 861 862 863 865 866 867 864 861 861 863 861
740 768 784 799 815 830 799 800 813 814 787 776 780 785 791 795 805 802 795 803 807 811 817 820 828 834 840 844 848 851 852 853 860 854 861 863 860 861 863 863 863 864 866 865 866 864 863 864 863
739 775 790 814 828 801 759 795 778 767 765 759 766 771 780 787 795 796 792 796 802 808 813 818 823 829 836 840 843 849 852 852 858 860 860 858 858 860 860 863 864 864 865 866 867 866 864 864 862
749 748 768 804 796 817 793 777 751 739 743 751 759 771 781 787 796 798 790 792 803 806 810 817 822 827 833 837 841 844 849 851 852 853 850 851 858 860 862 862 862 864 865 865 867 867 866 866 866
745 757 731 779 790 784 794 774 743 744 745 751 755 765 772 778 783 785 790 791 800 810 809 815 819 825 831 835 839 842 845 849 851 854 853 857 853 855 859 859 860 862 864 864 865 865 866 866 866
729 724 756 744 792 803 797 792 806 757 747 742 752 756 758 767 773 776 786 795 796 804 803 808 820 822 828 831 835 839 842 846 848 851 851 855 849 856 852 856 858 861 864 865 864 865 865 865 865
741 746 741 732 740 772 806 807 782 759 739 737 739 743 752 755 764 770 781 787 800 801 798 810 814 820 826 829 831 834 838 841 843 847 851 852 855 853 850 853 857 860 862 864 863 864 864 862 862
723 735 737 755 760 743 749 777 756 752 753 746 727 735 745 750 754 764 775 789 798 799 800 806 805 814 822 826 831 834 836 838 839 841 844 846 848 850 853 855 858 859 861 862 862 862 863 861 860
Wind_Speed
8 9 10 13 2 5 13 15 12 18 17 17 23 17 18 17 12 16 27 30 30 22 18 15 14 11 12 12 12 13 13 14 16 16 18 17 19 18 20 19 18 19 18 19 18 18 17 16 16
8 13 8 2 3 7 11 15 15 15 16 19 22 16 20 24 26 26 23 27 25 22 19 16 16 13 12 11 12 13 12 14 15 15 17 17 19 19 19 18 18 18 18 17 17 17 16 15 15
10 9 1 3 2 3 12 14 16 18 13 20 9 5 16 22 21 29 30 27 29 27 21 17 15 14 13 12 11 13 13 13 14 15 17 18 19 18 18 18 16 16 15 16 15 15 15 14 14
9 3 1 4 6 14 17 16 17 12 15 21 23 15 20 27 28 28 28 21 26 23 19 16 15 14 13 13 12 13 13 14 14 16 17 18 17 18 17 16 16 16 14 13 13 13 14 13 13
5 3 1 5 2 20 15 17 18 12 19 17 23 20 20 27 32 27 23 25 23 21 17 15 15 14 14 13 13 14 14 15 16 17 17 17 17 16 16 16 17 17 16 16 15 14 13 12 14
3 1 1 4 10 15 16 18 13 13 21 6 19 21 21 26 22 21 22 22 26 25 19 16 15 14 13 13 14 14 14 16 16 16 17 16 16 16 16 15 16 15 15 14 14 14 14 13 14
3 2 6 7 9 9 17 18 10 13 17 18 20 23 19 18 19 17 24 21 29 24 21 17 15 15 15 15 14 15 16 16 16 16 17 17 16 15 15 15 14 14 14 13 14 14 14 16 17
3 3 4 3 5 15 18 17 14 19 7 19 21 17 15 18 22 25 37 27 28 19 22 18 17 15 15 14 14 14 16 15 15 16 17 18 17 15 14 15 13 13 13 13 14 14 16 19 17
5 3 5 6 16 12 17 18 13 19 11 17 12 20 20 20 26 24 24 24 22 16 15 20 17 19 16 14 13 14 14 14 14 17 21 20 20 14 12 12 13 13 12 12 12 13 15 14 13
4 2 3 5 14 13 16 14 13 3 10 14 21 24 24 22 23 23 21 21 17 20 12 22 18 16 17 13 15 13 13 9 8 11 8 13 16 14 12 14 13 12 8 6 5 4 7 5 3
4 4 6 8 6 18 19 15 17 17 14 16 23 21 20 20 21 16 29 24 18 16 19 20 17 17 14 15 19 14 18 11 4 8 14 16 13 15 11 8 13 11 8 10 12 6 5 4 5
7 12 3 16 7 11 16 16 12 11 15 22 20 19 18 16 16 18 25 15 20 22 17 18 17 16 11 8 14 15 16 14 7 6 9 11 7 11 16 1 5 5 16 5 5 3 7 8 7
7 2 16 4 5 4 13 12 11 16 19 23 20 18 17 16 15 18 27 22 20 24 22 23 19 14 9 9 14 17 13 10 15 5 7 4 7 5 14 5 7 2 2 6 11 10 8 8 8
6 8 7 1 7 7 4 15 8 19 19 22 21 19 17 17 19 19 22 22 20 21 21 18 14 12 3 9 15 18 15 13 15 9 11 6 9 3 3 1 8 3 7 7 4 4 8 10 10
9 11 8 3 6 6 3 14 13 14 19 21 20 18 17 16 18 16 18 17 20 20 21 15 15 12 8 11 12 10 13 10 14 13 8 2 3 5 6 5 5 3 9 8 3 2 5 14 11
7 6 9 2 6 4 4 6 17 17 19 20 19 17 15 16 18 15 17 19 19 22 20 18 16 18 13 13 12 10 13 12 12 13 9 6 5 2 2 2 4 3 2 4 3 8 2 14 11
4 4 8 0 8 5 3 9 11 18 19 19 17 17 15 15 17 16 16 24 22 22 15 25 18 18 16 12 8 14 13 10 10 12 8 5 3 3 3 7 2 2 5 7 10 7 9 5 5
8 6 9 3 3 8 3 9 14 17 18 18 18 17 16 17 16 19 20 21 25 21 15 18 15 20 15 10 7 9 10 8 6 14 9 7 3 1 3 2 3 7 7 13 8 9 3 7 2
16 7 5 13 8 3 5 2 5 8 12 10 16 15 11 15 19 20 22 23 22 22 17 22 19 18 14 12 11 8 9 3 9 7 6 4 4 2 2 4 6 9 1 9 9 10 11 5 4
12 14 12 9 7 3 4 6 9 8 12 4 3 13 16 12 6 20 22 25 23 22 19 18 23 18 17 14 14 11 14 10 11 12 9 6 6 4 4 1 2 9 2 4 3 5 11 5 3
8 16 13 9 6 6 3 3 7 7 8 12 5 3 9 18 7 14 20 22 26 25 21 19 23 21 19 4 14 8 11 11 16 14 12 9 8 4 2 1 4 2 3 2 3 6 10 9 6
12 15 20 24 13 5 15 2 3 9 14 10 9 9 9 7 19 15 20 20 26 28 27 22 20 22 15 9 8 11 10 8 14 14 14 12 10 8 5 2 0 1 4 2 4 3 5 11 15
9 18 15 17 9 9 16 4 4 14 16 20 15 15 15 3 10 18 23 25 22 28 29 27 23 19 16 18 9 7 7 3 8 5 10 10 10 6 8 6 4 2 2 2 3 7 9 12 13
21 16 16 9 5 5 15 10 7 14 24 22 22 19 18 15 13 24 22 18 29 31 29 32 27 22 18 18 15 9 5 10 10 3 14 12 10 10 6 7 5 5 2 2 2 5 7 9 11
8 20 7 6 5 11 15 13 11 28 24 23 22 24 18 13 7 7 17 25 29 25 28 30 30 25 20 17 14 11 11 11 15 16 11 8 3 2 14 9 8 5 5 2 3 4 3 6 10
12 16 6 4 5 4 11 8 4 22 25 23 16 19 17 17 16 19 17 16 12 24 16 28 27 25 23 19 15 11 9 9 7 10 1 3 4 11 10 12 7 5 5 5 4 5 6 5 6
13 14 13 7 5 8 5 6 6 18 20 21 23 20 24 25 24 22 15 18 14 19 28 12 28 24 23 19 17 13 9 6 2 6 14 12 23 14 13 12 9 8 5 6 5 7 7 7 4
15 7 13 11 7 9 4 4 6 12 16 23 23 26 25 24 25 17 17 24 34 32 28 24 18 26 24 22 22 16 13 9 7 5 3 2 11 7 11 5 6 6 7 6 7 8 8 7 6
12 11 11 15 10 9 4 0 13 12 5 13 24 23 23 25 25 19 12 14 18 27 31 27 30 25 26 23 24 22 19 17 11 8 8 7 8 3 2 3 5 4 5 8 8 10 5 5 5
16 16 12 7 10 10 7 7 11 10 22 20 9 27 22 23 20 16 15 19 9 7 8 33 29 27 24 23 22 19 19 18 18 13 7 6 7 5 6 5 6 7 8 9 8 8 7 10 7
Wind_Direction
239 234 248 263 277 248 99 101 105 96 83 67 60 73 68 39 69 110 144 146 133 127 128 123 116 115 105 97 92 91 89 89 94 94 97 99 96 96 94 90 93 91 89 88 88 88 89 84 87
256 261 291 285 258 133 116 118 117 99 81 78 41 61 76 84 100 118 133 129 125 130 129 127 123 116 112 108 102 97 93 92 98 100 104 102 100 94 95 95 94 93 93 93 90 88 84 84 87
242 267 52 280 237 157 124 126 108 104 135 98 121 78 96 107 115 112 104 124 117 120 125 125 125 117 113 111 105 103 103 97 99 108 103 105 105 101 94 94 95 95 95 96 95 90 87 87 93
252 158 17 4 305 121 121 123 124 123 95 101 104 86 102 101 109 118 124 123 106 111 118 120 120 119 107 111 102 100 102 104 104 106 108 108 104 100 96 95 94 92 99 98 93 90 90 91 97
339 35 59 246 193 111 120 124 134 128 77 85 108 109 100 108 109 114 119 118 123 118 115 114 113 113 115 109 110 107 106 106 106 105 106 110 108 105 100 97 97 93 92 92 91 92 92 94 98
38 80 312 250 95 125 125 135 118 87 109 207 112 112 105 117 121 139 135 135 134 122 117 112 118 121 120 108 106 102 105 108 109 109 112 116 116 112 104 100 102 95 93 95 97 95 93 94 99
126 72 240 261 165 124 133 128 107 126 120 126 110 119 127 122 141 126 132 115 96 114 119 120 119 120 113 107 106 107 112 117 116 116 122 123 122 118 113 113 109 101 98 97 104 100 98 95 102
109 177 236 154 233 138 135 135 174 114 131 135 130 137 128 168 151 135 107 112 133 115 118 121 127 123 113 108 113 115 119 126 133 126 126 123 126 127 121 115 115 112 110 108 112 111 111 112 106
118 242 193 203 162 136 145 90 90 126 192 150 119 131 148 150 126 118 109 119 115 110 136 125 122 126 122 119 127 122 123 124 139 146 134 122 114 123 120 146 125 116 108 113 123 119 112 122 127
151 282 284 298 154 145 132 127 134 127 145 125 121 123 162 143 126 139 153 112 129 142 126 134 142 141 136 123 127 125 130 139 175 131 157 130 153 139 153 140 125 104 101 101 122 128 144 171 197
221 208 316 353 203 162 161 156 158 157 154 139 131 138 151 143 132 158 136 135 133 138 133 129 130 138 139 147 152 137 134 126 151 127 136 120 136 151 125 158 135 124 100 7 284 277 165 80 236
260 125 185 291 78 232 148 163 129 186 127 124 133 152 140 161 155 155 121 135 143 140 157 138 127 138 160 169 173 151 144 147 121 86 103 132 170 166 136 10 209 197 146 148 171 111 103 96 69
228 110 172 224 18 52 149 128 113 91 119 129 143 165 152 150 161 137 135 144 132 138 156 113 131 142 152 176 123 142 138 136 109 167 126 106 132 106 91 87 130 176 107 188 112 144 111 119 84
246 127 111 158 91 19 137 123 178 133 137 136 155 154 167 151 157 140 159 130 134 136 114 119 130 146 103 116 114 142 157 125 147 148 56 101 131 136 102 73 139 72 87 83 101 136 182 125 121
157 140 149 69 55 41 315 165 142 144 146 145 158 163 162 161 149 152 135 136 134 127 122 124 141 144 126 129 128 140 157 132 137 124 131 133 159 128 109 125 77 126 108 83 72 47 99 143 134
149 154 164 93 3 197 334 94 139 156 148 153 159 163 159 160 148 155 149 143 137 127 137 157 158 151 153 164 169 184 173 151 163 147 150 151 121 61 19 7 205 164 245 254 308 289 212 170 146
126 29 258 247 18 0 25 139 157 160 155 167 161 161 163 148 146 158 161 140 132 130 158 151 151 146 162 172 188 164 159 163 174 158 144 131 121 109 353 17 109 127 357 316 33 46 358 320 137
147 133 219 199 19 33 269 149 171 165 160 171 172 163 170 155 154 160 167 141 131 140 162 147 154 143 153 172 184 143 156 202 165 145 147 141 166 253 153 340 16 328 2 110 41 65 24 8 239
115 115 46 90 66 107 302 89 276 35 181 176 175 160 165 152 153 163 155 146 140 150 173 150 145 146 156 169 180 159 208 176 126 155 148 144 168 227 305 85 109 259 359 66 37 349 318 4 3
101 100 94 88 100 87 205 220 270 325 318 185 51 166 172 142 148 163 151 152 155 157 167 154 157 160 179 191 196 176 186 164 156 160 164 172 171 194 252 38 94 175 97 75 34 343 342 323 353
175 143 156 129 114 48 147 356 207 265 280 301 309 270 259 151 222 169 162 164 155 156 161 172 159 178 204 186 176 173 193 198 180 169 176 178 188 187 327 19 27 9 347 133 328 358 360 0 336
108 155 140 142 164 186 200 173 230 247 265 263 264 245 235 241 188 173 166 187 162 160 164 170 173 185 207 226 179 196 201 169 198 185 184 182 195 197 181 179 300 11 44 89 329 355 351 3 340
164 163 143 158 170 126 204 124 205 175 231 244 221 217 234 178 242 177 187 163 193 165 168 169 170 188 196 200 207 168 206 20 256 297 163 178 185 204 197 191 217 265 276 189 67 339 349 7 3
133 130 130 119 155 257 206 199 196 197 207 217 209 205 214 196 200 241 188 180 174 170 172 167 176 184 192 195 204 187 227 221 266 217 222 205 172 190 208 200 199 228 274 316 250 302 339 339 3
177 160 185 201 187 233 193 198 211 209 209 212 198 197 207 204 239 277 205 180 160 177 175 166 171 178 194 194 192 183 185 176 169 190 191 186 259 195 179 184 198 233 240 229 241 282 315 336 335
210 232 223 226 345 314 327 320 131 191 201 206 202 193 188 220 212 221 223 161 138 164 161 168 171 173 190 194 192 194 176 175 140 98 266 310 322 285 195 182 193 207 238 221 245 246 272 273 310
195 239 243 115 204 239 135 305 2 164 193 193 200 194 193 193 208 222 214 163 211 189 184 163 169 174 181 190 188 191 190 201 157 108 121 127 218 234 202 176 186 196 203 222 241 262 255 258 253
272 238 230 237 174 255 347 333 205 219 183 181 187 197 192 199 206 193 169 167 181 215 183 178 191 173 182 190 182 189 192 204 210 131 142 43 197 259 161 153 168 195 210 222 242 265 280 232 236
229 247 258 271 231 242 160 310 287 275 259 199 184 186 189 192 203 187 165 142 191 199 171 187 178 174 186 194 185 185 185 192 193 196 184 184 169 238 84 151 190 226 203 229 236 255 272 217 254
253 223 234 253 252 286 282 163 138 57 323 273 198 183 179 194 199 180 171 142 171 142 187 193 170 175 186 190 193 189 187 182 190 192 191 191 178 175 191 208 210 211 221 227 240 253 252 240 237